GW4140 Weather Reports


Display with metric or nautical units.
time (UTC)temp
F
wind
direction
speed
MPH
gust
MPH
rain 1hr
in
rain 24hr
in
rain mn
in
humidity
%
barometer
mb
20260506090047 52 60 6.0 11.0 0.00 0.00 0.00 85 1011.5
20260506084554 53 41 8.0 12.0 0.00 0.00 0.00 84 1011.4
20260506083048 53 58 7.0 11.0 0.00 0.00 0.00 84 1011.4
20260506081551 53 66 6.0 11.0 0.00 0.00 0.00 83 1011.3
20260506073048 55 96 6.0 11.0 0.00 0.00 0.00 81 1011.6
20260506071553 55 82 7.0 13.0 0.00 0.00 0.00 79 1011.5
20260506061548 58 60 5.0 11.0 0.00 0.00 0.00 75 1011.3
20260506044553 65 105 6.0 11.0 0.00 0.00 0.00 65 1010.2
20260506043049 66 117 4.0 11.0 0.00 0.00 0.00 64 1010.1
20260506041550 67 75 5.0 9.0 0.00 0.00 0.00 63 1009.9
20260506040100 67 62 5.0 9.0 0.00 0.00 0.00 63 1010.0
20260506034604 68 98 4.0 11.0 0.00 0.00 0.00 62 1010.0
20260506033047 69 102 5.0 9.0 0.00 0.00 0.00 61 1009.9
20260506031558 70 108 4.0 9.0 0.00 0.00 0.00 60 1010.0
20260506030048 71 74 5.0 8.0 0.00 0.00 0.00 58 1009.5
20260506024546 71 81 5.0 10.0 0.00 0.00 0.00 59 1009.3
20260506023047 72 96 3.0 7.0 0.00 0.00 0.00 61 1009.4
20260506021550 73 88 5.0 10.0 0.00 0.00 0.00 61 1009.2
20260506020045 74 82 3.0 5.0 0.00 0.00 0.00 59 1008.7
20260506014549 75 96 3.0 6.0 0.00 0.00 0.00 56 1008.6
20260506013048 76 86 3.0 5.0 0.00 0.00 0.00 53 1008.2
20260506011545 78 77 4.0 8.0 0.00 0.00 0.00 48 1008.0
20260506010046 79 95 3.0 5.0 0.00 0.00 0.00 41 1007.5
20260506004551 80 50 2.0 6.0 0.00 0.00 0.00 38 1007.3
20260506003052 81 49 4.0 7.0 0.00 0.00 0.00 34 1007.4
20260506001553 84 6 6.0 10.0 0.00 0.00 0.00 26 1007.2
20260506000050 84 338 5.0 8.0 0.00 0.00 0.00 27 1006.9
20260505234556 86 354 6.0 11.0 0.00 0.00 0.00 26 1006.8
20260505233103 86 325 7.0 10.0 0.00 0.00 0.00 25 1006.8
20260505231555 87 353 7.0 15.0 0.00 0.00 0.00 26 1006.8
20260505230050 87 328 8.0 12.0 0.00 0.00 0.00 27 1006.5
20260505224549 87 292 4.0 8.0 0.00 0.00 0.00 29 1006.6
20260505223055 89 288 5.0 10.0 0.00 0.00 0.00 28 1006.5
20260505221552 89 295 6.0 10.0 0.00 0.00 0.00 28 1006.5
20260505220049 90 285 6.0 9.0 0.00 0.00 0.00 28 1006.2
20260505214554 89 280 7.0 12.0 0.00 0.00 0.00 30 1006.5
20260505213102 89 289 8.0 14.0 0.00 0.00 0.00 30 1006.5
20260505211600 89 277 5.0 11.0 0.00 0.00 0.00 32 1006.7
20260505210054 89 277 6.0 12.0 0.00 0.00 0.00 34 1006.8
20260505204603 89 283 6.0 11.0 0.00 0.00 0.00 30 1006.9
20260505203100 89 285 8.0 14.0 0.00 0.00 0.00 31 1006.9
20260505201602 88 307 9.0 13.0 0.00 0.00 0.00 33 1007.0
20260505200053 89 283 7.0 13.0 0.00 0.00 0.00 32 1007.1
20260505194614 88 300 8.0 14.0 0.00 0.00 0.00 34 1007.5
20260505193052 87 307 7.0 14.0 0.00 0.00 0.00 36 1007.5
20260505191554 87 291 6.0 13.0 0.00 0.00 0.00 38 1007.7
20260505190051 86 259 5.0 10.0 0.00 0.00 0.00 41 1007.8
20260505184549 85 302 5.0 10.0 0.00 0.00 0.00 41 1007.9
20260505183050 84 287 6.0 12.0 0.00 0.00 0.00 44 1008.2
20260505181556 84 304 6.0 13.0 0.00 0.00 0.00 44 1008.5
20260505180053 83 290 6.0 14.0 0.00 0.00 0.00 49 1008.7
20260505174556 82 295 7.0 12.0 0.00 0.00 0.00 52 1008.7
20260505173051 81 290 9.0 13.0 0.00 0.00 0.00 53 1008.6
20260505171555 80 266 7.0 13.0 0.00 0.00 0.00 57 1008.6
20260505170056 79 283 9.0 13.0 0.00 0.00 0.00 60 1008.6
20260505164614 78 285 7.0 13.0 0.00 0.00 0.00 63 1008.7
20260505163053 78 318 7.0 12.0 0.00 0.00 0.00 66 1008.8
20260505161605 76 293 7.0 12.0 0.00 0.00 0.00 69 1008.8
20260505153049 74 274 7.0 10.0 0.00 0.00 0.00 77 1008.7
20260505151550 73 254 7.0 11.0 0.00 0.00 0.00 79 1008.5
20260505130109 64 0 0.0 0.0 0.00 0.00 0.00 93 1007.7
20260505124556 63 0 0.0 0.0 0.00 0.00 0.00 93 1007.8
20260505123050 63 0 0.0 0.0 0.00 0.00 0.00 93 1007.5
20260505121551 62 0 0.0 0.0 0.00 0.00 0.00 93 1007.7
20260505120106 62 0 0.0 0.0 0.00 0.00 0.00 92 1007.3
20260505114549 62 0 0.0 0.0 0.00 0.00 0.00 92 1007.3
20260505113053 62 0 0.0 0.0 0.00 0.00 0.00 92 1007.0
20260505111553 62 0 0.0 0.0 0.00 0.00 0.00 92 1007.1
20260505101555 63 0 0.0 0.0 0.00 0.00 0.00 90 1006.9
20260505100049 63 0 0.0 0.0 0.00 0.00 0.00 90 1007.0
20260505094551 64 0 0.0 0.0 0.00 0.00 0.00 89 1007.0
20260505093051 64 0 0.0 2.0 0.00 0.00 0.00 88 1006.8
20260505091550 65 239 1.0 3.0 0.00 0.00 0.00 87 1006.8